Location: Unspecified
(0.0000°N, 0.0000°E)
Time: 20:03:01
(UTC+00:00)

METEOR 2-6 DEB - Visible Passes

Search period start: 12 January 2025 00:00
Search period end: 22 January 2025 00:00
Orbit: 780 x 848 km, 81.2° (Epoch: 10 January)

Date Brightness Start Highest point End Pass type
(mag) Time Alt. Az. Time Alt. Az. Time Alt. Az.
12 Jan ? 19:30:02 10° NNW 19:35:16 69° W 19:40:35 10° S visible
13 Jan ? 19:07:04 10° N 19:12:20 78° E 19:17:43 10° S visible
14 Jan ? 18:44:19 10° N 18:49:24 51° E 18:54:36 10° SSE visible
15 Jan ? 20:05:43 10° WNW 20:08:20 14° W 20:10:59 10° SW visible
16 Jan ? 19:41:25 10° NW 19:45:21 21° W 19:49:23 10° SW visible
17 Jan ? 19:17:42 10° NNW 19:22:23 32° W 19:27:10 10° SSW visible
18 Jan ? 18:54:18 10° NNW 18:59:24 49° W 19:04:37 10° S visible
19 Jan ? 18:31:07 10° N 18:36:24 77° W 18:41:50 10° S visible
20 Jan ? 05:30:09 10° SE 05:34:19 22° E 05:38:25 10° NE visible
21 Jan ? 05:08:28 10° SE 05:11:18 14° E 05:14:06 10° ENE visible
